Regional Weather Roundup
Issued by NWS

Home | Current Version | Previous Version | Graphics & Text | Print | Product List | Glossary On
Versions: 1 2 3 4 5 6 7 8 9 10 11 12 13 14 15 16 17 18 19 20 21 22 23 24 25 26 27 28 29 30 31 32 33 34 35 36 37 38 39 40 41 42 43 44 45 46 47 48 49 50
000
ASUS43 KMPX 240210
RWRMN
WEATHER ROUNDUP FOR MINNESOTA
NATIONAL WEATHER SERVICE TWIN CITIES/CHANHASSEN MN
800 PM CST SUN NOV 23 2014


NOTE: "FAIR" INDICATES FEW OR NO CLOUDS BELOW 12,000 FEET WITH NO
SIGNIFICANT WEATHER AND/OR OBSTRUCTIONS TO VISIBILITY. N/A MEANS
CURRENT SKY AND/OR WEATHER CONDITIONS ARE NOT AVAILABLE.

MNZ060>063-068>070-240300-
   Twin Cities Metro

CITY           SKY/WX    TMP DP  RH WIND       PRES   REMARKS
TWIN CITIES    LGT RAIN  38  35  89 NW15      29.37F
ST PAUL        CLOUDY    39  36  89 NW10      29.37F
CRYSTAL        LGT RAIN  38  35  89 NW10      29.37F
BLAINE         CLOUDY    39  39 100 W12       29.37F
LAKEVILLE      CLOUDY    37  36  93 NW14      29.37S
EDEN PRAIRIE   LGT RAIN  38  35  89 NW14      29.37F
SOUTH ST PAUL  CLOUDY    40  36  87 NW9       29.36F
LAKE ELMO      CLOUDY    37  36  93 NW9       29.36F
$$
MNZ001>005-007-008-013>017-022>024-027-028-240300-
   Northwest Minnesota

CITY           SKY/WX    TMP DP  RH WIND       PRES   REMARKS
BEMIDJI        CLOUDY    29  28  96 W15       29.42S FOG     WCI  18
HALLOCK        CLOUDY    18  16  93 NW25      29.56R WCI  -1
ROSEAU         CLOUDY    25  19  80 NW14      29.47R WCI  13
WARROAD        CLOUDY    28  25  86 NW16      29.45R WCI  17
THIEF RVR FALL CLOUDY    19  18  93 NW22      29.51S WCI   3
CROOKSTON      CLOUDY    19  18  93 NW21      29.57R FOG     WCI   3
FOSSTON        MIX PCPN  19  18  93 W13G20    29.51R WCI   7
DETROIT LAKES  CLOUDY    28  27  93 NW20      29.49S FOG     WCI  15
MOORHEAD       CLOUDY    25  25 100 N15G21    29.56R FOG     WCI  12
PARK RAPIDS    CLOUDY    30  27  88 NW13      29.42S WCI  20
MAHNOMEN       CLOUDY    22  20  93 NW21      29.51R FOG     WCI   6
$$
MNZ006-009>011-018-025>026-240300-
   North Central Minnesota

CITY           SKY/WX    TMP DP  RH WIND       PRES   REMARKS
BAUDETTE       FOG       30  29  96 NW8       29.41S VSB 1   WCI  22
FLAG ISLAND    DRIZZLE   32  30  93 NW13      29.41R WCI  22
INTL FALLS     LGT RAIN  34  32  92 N5        29.38F FOG     WCI  30
WASKISH        CLOUDY    32  30  93 W12       29.41S WCI  23
BIG FORK       MOCLDY    36  34  93 CALM      29.38F
LONGVILLE      CLOUDY    36  32  87 W12       29.39R
GRAND RAPIDS   CLOUDY    36  32  87 NW8       29.37S
CRANE LAKE     CLOUDY    32  30  93 CALM      29.39F FOG
ORR            CLOUDY    34  30  86 CALM      29.35S FOG
COOK           CLOUDY    34  34 100 CALM      29.37S FOG
WALKER         CLOUDY    32  28  85 W12       29.40S WCI  23
$$
MNZ012-019>021-037-240300-
   Northeast Minnesota

CITY           SKY/WX    TMP DP  RH WIND       PRES   REMARKS
DULUTH         LGT RAIN  36  34  92 NW7       29.34S FOG
ELY            CLOUDY    34  34 100 CALM      29.35F FOG
HIBBING        CLOUDY    35  32  88 NW3       29.36S FOG
EVELETH        CLOUDY    34  34 100 CALM      29.36F FOG
DULUTH HARBOR  LGT RAIN  37  36  93 CALM      29.38S
TWO HARBORS    DRIZZLE   39  34  81 CALM      29.33F
SILVER BAY     MOCLDY    37  36  93 CALM      29.32F FOG
GRAND MARAIS     N/A     38  37  97 CALM      29.34S
G MARAIS ARPRT FOG       36  32  87 N7        29.32F VSB 1
$$
MNZ029>031-032-039>041-046>048-054>057-064-240300-
   West Central Minnesota

CITY           SKY/WX    TMP DP  RH WIND       PRES   REMARKS
FERGUS FALLS   CLOUDY    27  21  80 NW17      29.53S WCI  14
WHEATON        CLOUDY    25  19  80 W23G32    29.55F WCI  10
MORRIS           N/A     28  25  86 NW22      29.50S WCI  15
ALEXANDRIA     CLOUDY    29  22  75 NW21      29.47S WCI  16
ELBOW LAKE       N/A     27  24  87 NW14      29.50S WCI  16
WADENA         CLOUDY    28  25  86 W13G23    29.44S WCI  18
GLENWOOD       MOCLDY    30  25  80 NW17G25   29.47S WCI  18
APPLETON       MOCLDY    30  25  80 NW23      29.52S WCI  17
BENSON         CLOUDY    28  23  80 N23       29.50R WCI  14
ORTONVILLE     CLOUDY    27  19  74 NW13G25   29.53S WCI  16
MADISON        PTCLDY    34  27  75 NW18G26   29.53R WCI  23
WILLMAR        CLOUDY    34  27  75 NW23G30   29.48R WCI  22
$$
MNZ033>034-036-042>043-049>051-058-059-240300-
   Central Minnesota

CITY           SKY/WX    TMP DP  RH WIND       PRES   REMARKS
ST CLOUD       CLOUDY    37  33  85 NW18      29.40S
SAUK CENTRE    CLOUDY    31  25  78 NW17      29.44F WCI  20
PAYNESVILLE    CLOUDY    31  26  84 W18       29.45S WCI  19
AITKIN         MIX PCPN  39  34  81 CALM      29.36S
PINE RIVER     CLOUDY    36  30  80 NW7       29.44S
BRAINERD       CLOUDY    35  30  82 NW14      29.40S WCI  26
STAPLES        CLOUDY    30  25  80 W13G21    29.43S WCI  20
LONG PRAIRIE   CLOUDY    32  27  80 W17       29.43S WCI  21
LITTLE FALLS   MOCLDY    34  27  75 W12G18    29.41S WCI  25
LITCHFIELD     CLOUDY    36  30  80 NW16G24   29.43S
BUFFALO        CLOUDY    36  32  87 W10       29.40F
MAPLE LAKE     CLOUDY    36  34  91 W12G17    29.41S
$$
MNZ037-044-045-052-053-240300-
   East Central Minnesota

CITY           SKY/WX    TMP DP  RH WIND       PRES   REMARKS
PRINCETON      LGT RAIN  37  36  93 W9        29.38F
MORA           LGT RAIN  34  32  93 NW3       29.39S
CAMBRIDGE      LGT RAIN  37  30  75 W7        29.36S
RUSH CITY      CLOUDY    36  35  96 NW5       29.37S
MOOSE LAKE     LGT RAIN  36  34  93 CALM      29.35R
HINCKLEY       DRIZZLE   36  36 100 CALM      29.36F
CLOQUET        DRIZZLE   36  34  93 NW6       29.35F
MCGREGOR       CLOUDY    36  34  93 NW3       29.37S
$$
MNZ071>073-080-081-089-090-097-098-240300-
   Southwest Minnesota

CITY           SKY/WX    TMP DP  RH WIND       PRES   REMARKS
MONTEVIDEO     CLOUDY    30  25  80 N17G24    29.52R WCI  18
GRANITE FALLS  CLOUDY    32  26  80 NW18G26   29.51F WCI  20
CANBY          CLOUDY    30  24  79 NW21G28   29.55R WCI  17
MARSHALL       CLOUDY    30  21  69 NW25      29.50S WCI  16
REDWOOD FALLS  CLOUDY    34  25  69 NW20G29   29.47S WCI  23
OLIVIA         MOCLDY    34  30  86 NW21G26   29.45F WCI  22
PIPESTONE      CLOUDY    28  23  80 NW17G28   29.51S WCI  16
WINDOM         CLOUDY    34  27  75 NW17G24   29.46S WCI  23
WORTHINGTON    CLOUDY    32  25  74 NW24      29.49S WCI  19
JACKSON        CLOUDY    36  28  75 NW24G30   29.46S
TRACY          CLOUDY    33  28  83 NW16G23   29.49S WCI  22
SLAYTON        CLOUDY    32  27  83 NW20      29.49S WCI  20
$$
MNZ065>067-074>077-082>085-091>093-240300-
   South Central Minnesota

CITY           SKY/WX    TMP DP  RH WIND       PRES   REMARKS
MANKATO        CLOUDY    37  28  70 NW17G24   29.41F
NEW ULM        CLOUDY    34  30  86 NW18G25   29.44S WCI  23
ST JAMES       CLOUDY    36  28  75 W18       29.46S
FAIRMONT       CLOUDY    36  27  69 NW22G28   29.43F
GLENCOE        CLOUDY    37  34  89 NW14G21   29.40F
FARIBAULT      CLOUDY    37  36  93 W13       29.38F
OWATONNA       CLOUDY    37  36  93 NW17      29.37F
WASECA         DRIZZLE   36  32  87 NW15G22   29.40F
ALBERT LEA     CLOUDY    37  36  93 NW12G23   29.37S
$$
MNZ078>079-086>088-094>096-240300-
   Southeast Minnesota

CITY           SKY/WX    TMP DP  RH WIND       PRES   REMARKS
ROCHESTER      LGT RAIN  39  37  92 NW20      29.32F FOG
RED WING         N/A     39  37  93 NW9       29.34F
STANTON        DRIZZLE   39  37  89 NW13      29.35F
DODGE CENTER   DRIZZLE   39  37  93 NW15G22   29.33F
WINONA         DRIZZLE   46  45  93 W8        29.29S
AUSTIN         CLOUDY    37  37 100 NW20      29.34S FOG
PRESTON        CLOUDY    39  38  97 NW14      29.30F FOG
$$
ABBREVIATIONS USED IN REMARKS
   TC - TEMPERATURES IN CELSIUS
  WCI - WIND CHILL INDEX
   HX - HEAT INDEX
  VSB - VISIBILITY
$$


USA.gov is the U.S. government's official web portal to all federal, state and local government web resources and services.